Regional Weather Roundup
Issued by NWS

Home | Current Version | Previous Version | Graphics & Text | Print | Product List | Glossary On
Versions: 1 2 3 4 5 6 7 8 9 10 11 12 13 14 15 16 17 18 19 20 21 22 23 24 25 26 27 28 29 30 31 32 33 34 35 36 37 38 39 40 41 42 43 44 45 46 47 48 49 50
827
ASUS43 KDTX 260801
RWRMI
MICHIGAN HOURLY REGIONAL WEATHER ROUNDUP
NATIONAL WEATHER SERVICE DETROIT/PONTIAC MI
400 AM EDT SUN MAR 26 2017

NOTE: "FAIR" INDICATES FEW OR NO CLOUDS BELOW 12,000 FEET WITH NO
SIGNIFICANT WEATHER AND/OR OBSTRUCTION TO VISIBILITY.

MIZ047>049-052>055-059>063-066>070-074>076-081>083-260900-
SOUTHEAST LOWER MICHIGAN

CITY           SKY/WX    TMP DP  RH WIND       PRES   REMARKS
ADRIAN         CLOUDY    39  37  92 NE3       30.07S
ALMA           LGT SNOW  37  36  98 E13       30.09F WCI  28
ANN ARBOR      CLOUDY    39  37  92 NE8       30.05F WCI  33
BAD AXE        CLOUDY    36  32  87 E5        30.13F WCI  32
CARO           CLOUDY    36  33  90 E5        30.10F WCI  32
DETROIT CITY   CLOUDY    39  36  89 E14       30.09F WCI  31
DETROIT        CLOUDY    40  36  86 E10       30.08F WCI  33
FLINT          CLOUDY    39  37  92 E3        30.09F
GROSSE ILE     CLOUDY    38  35  89 E12G17    30.06F WCI  30
HILLSDALE      LGT RAIN  37  36  93 E10       30.02F WCI  30
HOWELL         CLOUDY    40  37  88 E3        30.06F

CITY           SKY/WX    TMP DP  RH WIND       PRES   REMARKS
JACKSON        CLOUDY    41  37  86 SE8       30.06F
LAMBERTVILLE   CLOUDY    39  36  89 E7G17     30.04F WCI  34
LANSING        CLOUDY    40  37  89 E9        30.07F WCI  34
LAPEER         MOCLDY    36  35  95 E6        30.09F WCI  31
MASON          CLOUDY    40  38  93 CALM      30.06F
MONROE         MOCLDY    39  37  93 E8        30.05F WCI  33
MT. CLEMENS    MOCLDY    38  38  99 E6        30.08F WCI  34
PONTIAC        MOCLDY    37  34  89 E9        30.06F WCI  30
PORT HOPE        N/A     34  33  96 E8        30.13F WCI  27
TRI CITIES     CLOUDY    37  35  92 NE9       30.12F WCI  30
MIDLAND        DRIZZLE   37  35  93 NE5       30.13F WCI  33
TROY           CLOUDY    39  35  87 E8        30.10F WCI  33
SAGINAW HB     CLOUDY    37  32  81 N3        30.11F
$$
MIZ043>046-050>051-056>058-064>065-071>073-077>080-260900-
SOUTHWEST LOWER MICHIGAN

CITY           SKY/WX    TMP DP  RH WIND       PRES   REMARKS
BATTLE CREEK   LGT RAIN  42  41  96 E10       30.03F
BENTON HARBOR  LGT RAIN  47  44  90 E13       29.95F
BIG RAPIDS     FLURRIES  36  34  92 E9        30.05F WCI  29
COLDWATER      LGT RAIN  42  40  93 E10       30.01F
FREMONT        LGT RAIN  38  37  97 E10G17    30.01F WCI  31
HOLLAND        CLOUDY    44  41  89 E16       29.99F
GRAND RAPIDS   CLOUDY    40  32  73 E17       30.02F HAZE    WCI  31
IONIA          CLOUDY    38  37  98 E12G18    30.04F FOG     WCI  30
KALAMAZOO      CLOUDY    44  40  85 E9        30.01F
LUDINGTON      CLOUDY    38  38  99 E9        30.01F WCI  32
MARSHALL       LGT RAIN  41  39  93 E6        30.04F
MOUNT PLEASANT LGT RAIN  36  34  94 E12       30.08F WCI  27
MUSKEGON       CLOUDY    42  39  89 E13       30.00F
SOUTH HAVEN    CLOUDY    45  44  95 E9        29.96F
$$
MIZ016>042-260900-
NORTHERN LOWER MICHIGAN

CITY           SKY/WX    TMP DP  RH WIND       PRES   REMARKS
ALPENA         LGT RAIN  34  32  92 E13G21    30.17F WCI  25
BEAVER ISLAND  LGT SNOW  32  32  99 E9        30.10F WCI  24
BELLAIRE       FLURRIES  36  33  88 E3        30.08F
CADILLAC       DRIZZLE   35  34  96 SE12      30.04F WCI  26
CHARLEVOIX     LGT RAIN  34  34  99 E13       30.09F WCI  25
FRANKFORT      DRIZZLE   38  35  90 E5        30.04S WCI  34
GAYLORD        LGT RAIN  34  30  85 E8        30.08F WCI  27
GRAYLING       LGT SNOW  32  32 100 E10       30.10F WCI  24
HARBOR SPRINGS LGT SNOW  32  32  99 E10       30.10F WCI  24
HOUGHTON LAKE  LGT RAIN  35  33  92 E13       30.08F WCI  26
MANISTEE       LGT RAIN  38  37  97 E6        30.02F WCI  33
OSCODA         MIX PCPN  36  34  94 E9        30.15F WCI  29
PELLSTON       FRZ RAIN  33  29  85 E12       30.14F WCI  24
ROGERS CITY    MIX PCPN  33  31  94 E10G17      N/A  WCI  25
TRAVERSE CITY  LGT RAIN  38  34  85 SE7       30.05F WCI  33
$$
MIZ007>008-015-260900-
EASTERN UPPER MICHIGAN

CITY           SKY/WX    TMP DP  RH WIND       PRES   REMARKS
KINROSS        FLURRIES  29  26  89 E18       30.18F WCI  16
MACKINAC ISLAN CLOUDY    32  29  90 E18G33    30.15F WCI  20
NEWBERRY       MIX PCPN  30  29  96 E9        30.14F WCI  22
S. S. MARIE    FRZ RAIN  31  25  78 E10G18    30.20F WCI  22
MUNISING         N/A     32  30  92 S6        30.11F WCI  26
$$
MIZ004>006-011>014-085-260900-
CENTRAL UPPER MICHIGAN

CITY           SKY/WX    TMP DP  RH WIND       PRES   REMARKS
ESCANABA       MIX PCPN  32  31  96 E10       30.10F WCI  24
MENOMINEE      CLOUDY    33  32  96 E16       30.07F WCI  23
SAWYER-GWINN   MIX PCPN  31  30  96 SE7       30.08F WCI  24
$$
MIZ001>003-009>011-084-260900-
WESTERN UPPER MICHIGAN

CITY           SKY/WX    TMP DP  RH WIND       PRES   REMARKS
IRON MOUNTAIN  CLOUDY    32  28  85 E8        30.05F WCI  25
HOUGHTON       CLOUDY    32  27  81 E13       30.07F WCI  22
COPPER HARBOR    N/A     34  27  75 S7        30.12F WCI  28
IRONWOOD       MIX PCPN  32  31  96 CALM      30.03F
$$

ABBREVIATIONS USED IN REMARKS
   TC - TEMPERATURE IN CELSIUS
  WCI - WIND CHILL INDEX
   HX - HEAT INDEX
  VSB - VISIBILITY





USA.gov is the U.S. government's official web portal to all federal, state and local government web resources and services.